Miscellaneous Local Product
Issued by NWS Hastings, NE

Home | Current Version | Previous Version | Graphics & Text | Print | Product List | Glossary On
Versions: 1 2 3 4 5 6 7 8 9 10 11 12 13 14 15 16 17 18 19 20 21 22 23 24 25 26 27 28 29 30 31 32 33 34 35 36 37 38 39 40 41 42 43 44 45 46 47 48 49 50
728
AXUS43 KGID 251202
MISGRI

GID CWA HOURLY WEATHER ROUNDUP
NATIONAL WEATHER SERVICE HASTINGS NE
700 AM CDT SUN JUN 25 2017

NOTE: "FAIR" INDICATES FEW OR NO CLOUDS BELOW 12,000 FEET WITH NO
SIGNIFICANT WEATHER AND/OR OBSTRUCTIONS TO VISIBILITY.

...SOUTH CENTRAL NEBRASKA...

CITY           SKY/WX    TMP DP  RH WIND       PRES   REMARKS
GRAND ISLAND   CLOUDY    53  44  71 N6        30.35R
HASTINGS       LGT RAIN  55  45  68 N3        30.36R
KEARNEY        CLOUDY    54  45  71 NE5       30.35F
ORD            CLOUDY    50  41  71 N6        30.35R
YORK           CLOUDY    54  45  71 CALM      30.34R
AURORA         CLOUDY    53  45  75 N5        30.34S
LEXINGTON      CLOUDY    57  42  57 NE3       30.36S
HOLDREGE       LGT RAIN  53  44  72 E3        30.36R
HEBRON         CLOUDY    56  47  72 CALM      30.35R

...NEBRASKA PANHANDLE...

CITY           SKY/WX    TMP DP  RH WIND       PRES   REMARKS
CHADRON        CLOUDY    50  41  71 N3        30.35F
ALLIANCE       CLOUDY    53  39  59 S3        30.36S
SCOTTSBLUFF    LGT RAIN  54  39  57 NE7       30.38R
SIDNEY         CLOUDY    51  36  56 E8        30.39R

...WESTERN AND NORTH CENTRAL NEBRASKA...

CITY           SKY/WX    TMP DP  RH WIND       PRES   REMARKS
VALENTINE      MOCLDY    47  35  63 W3        30.37S
AINSWORTH      MOCLDY    46  40  78 CALM      30.37S
ONEILL         CLEAR     46  43  87 W5        30.35S
BROKEN BOW     MOCLDY    53  43  68 SW6       30.37R
IMPERIAL       CLOUDY    54  42  64 NE8       30.35R
NORTH PLATTE   CLOUDY    55  41  59 NE6       30.37S
MCCOOK         CLOUDY    54  44  69 E8        30.33F

...EASTERN NEBRASKA...

CITY           SKY/WX    TMP DP  RH WIND       PRES   REMARKS
NORFOLK        CLEAR     49  42  77 NW5       30.32R
SO SIOUX CITY  SUNNY     51  44  77 NW7       30.31R
TEKAMAH        SUNNY     52  42  69 W9        30.30R
COLUMBUS       PTCLDY    52  45  77 W5        30.33S
ALBION         PTCLDY    50  42  73 NW5       30.34R
OMAHA EPPLEY   CLOUDY    57  46  66 CALM      30.29R
OFFUTT AFB     CLOUDY    56  46  69 W6        30.29S
MILLARD        CLOUDY    58  46  65 W7        30.30S
LINCOLN        CLEAR     56  43  61 W3        30.33R
NEBRASKA CITY  MOSUNNY   55  46  73 NW5       30.30R
BEATRICE       MOCLDY    53  49  85 NW3       30.32R
FALLS CITY     MOSUNNY   54  48  80 NW6       30.29R

...NORTHERN KANSAS...

CITY           SKY/WX    TMP DP  RH WIND       PRES   REMARKS
GOODLAND       CLOUDY    54  54 100 E6        30.31R
HILL CITY      CLOUDY    59  57  93 N9        30.33R
NORTON         CLOUDY    55  46  71 N9        30.33R
PHILLIPSBURG   MOCLDY    61  54  77 N7        30.33R
SMITH CENTER   CLEAR     55  45  67 NE12G22   30.33R
HAYS           MOCLDY    58  53  84 E8        30.29F
RUSSELL        CLOUDY    60  52  74 CALM      30.29R
CONCORDIA      CLOUDY    58  52  80 N5        30.31R
SALINA         LGT RAIN  63  56  78 CALM      30.29R
TOPEKA         CLEAR     62  55  77 NW5       30.28R



USA.gov is the U.S. government's official web portal to all federal, state and local government web resources and services.